This is the latest recevied weather packets stored in our database for station/object KG7KID-7. If no packets are shown the sender has not sent any weather packets the latest 10 day(s).
| Time | Temp. | Humidity | Pressure | Rain* | Wind** | Luminosity | Snow |
|---|---|---|---|---|---|---|---|
| 1777492060 | 25.56° C | 14% | 977.9 hPa | 0 mm | - | - | - |
| 1777491761 | 25° C | 14% | 978 hPa | 0 mm | - | - | - |
| 1777491461 | 25° C | 14% | 978.1 hPa | 0 mm | - | - | - |
| 1777491160 | 25° C | 15% | 978.2 hPa | 0 mm | - | - | - |
| 1777490562 | 25° C | 14% | 978.6 hPa | 0 mm | - | - | - |
| 1777490128 | 25° C | 15% | 978.8 hPa | 0 mm | - | - | - |
| 1777489828 | 24.44° C | 15% | 978.9 hPa | 0 mm | - | - | - |
| 1777489528 | 23.89° C | 16% | 979 hPa | 0 mm | - | - | - |
| 1777489229 | 23.33° C | 16% | 979.1 hPa | 0 mm | - | - | - |
| 1777488928 | 23.33° C | 16% | 979.2 hPa | 0 mm | - | - | - |
| 1777488328 | 23.33° C | 16% | 979.5 hPa | 0 mm | - | - | - |
| 1777488028 | 23.33° C | 15% | 979.7 hPa | 0 mm | - | - | - |
| 1777487829 | 23.33° C | 16% | 979.7 hPa | 0 mm | - | - | - |
| 1777487728 | 23.33° C | 16% | 979.7 hPa | 0 mm | - | - | - |
| 1777487428 | 23.89° C | 16% | 979.7 hPa | 0 mm | - | - | - |
| 1777487128 | 23.33° C | 16% | 979.7 hPa | 0 mm | - | - | - |
| 1777486528 | 22.78° C | 16% | 979.8 hPa | 0 mm | - | - | - |
| 1777486234 | 23.33° C | - | - | 0 mm | - | - | - |
| 1777486229 | 23.33° C | 16% | 979.8 hPa | 0 mm | - | - | - |
| 1777485929 | 23.33° C | 17% | 979.9 hPa | 0 mm | - | - | - |
| 1777485629 | 23.33° C | 17% | 979.9 hPa | 0 mm | - | - | - |
| 1777485328 | 22.78° C | 17% | 979.9 hPa | 0 mm | - | - | - |
| 1777485027 | 22.78° C | 17% | 980 hPa | 0 mm | - | - | - |
| 1777484728 | 22.22° C | 18% | 980.1 hPa | 0 mm | - | - | - |
| 1777484428 | 21.67° C | 19% | 980.1 hPa | 0 mm | - | - | - |
* Rain latest hour (hover to see other rain measurements)
** Current wind speed in m/s (hover to see current wind gust speed)